Location: Escondido Hill
(38.9119°N, 104.7815°W)
Time: 02:46:32
(UTC-07:00)

N. Korean satellite - Pass Details

Date: 17 October 2019
Orbit: 456 x 506 km, 97.2° (Epoch: 21 November)

Event Time Altitude Azimuth Distance (km) Brightness Sun altitude
Rises 06:22:28 0° 22° (NNE) 2,545 10.5 -10.1°
Reaches altitude 10° 06:24:40 10° 32° (NNE) 1,669 9.7 -9.6°
Maximum altitude 06:27:56 33° 98° (E) 847 8.7 -9.0°
Drops below altitude 10° 06:31:14 10° 163° (SSE) 1,681 9.6 -8.4°
Sets 06:33:27 0° 173° (S) 2,566 10.4 -7.9°
